N7WGJ Weather Reports


time (UTC)temp
F
wind
direction
speed
knots
gust
knots
rain 1hr
in
rain 24hr
in
rain mn
in
humidity
%
barometer
mb
20260505102141 54 166 0.0 0.0 0.00 0.00 0.00 91 1014.1
20260505101123 54 164 0.0 0.0 0.00 0.00 0.00 91 1014.2
20260505100142 54 232 0.0 0.0 0.00 0.00 0.00 91 1014.1
20260505095129 54 248 0.0 0.0 0.00 0.00 0.00 91 1014.0
20260505094127 54 178 0.0 0.0 0.00 0.00 0.00 91 1014.0
20260505093129 54 174 0.0 0.0 0.00 0.00 0.00 91 1013.9
20260505092129 54 173 0.0 0.0 0.00 0.00 0.00 91 1013.8
20260505091131 54 163 0.0 0.0 0.00 0.00 0.00 91 1013.8
20260505090146 54 185 0.0 0.0 0.00 0.00 0.00 91 1013.8
20260505085138 54 196 0.0 0.0 0.00 0.00 0.00 91 1013.7
20260505084138 53 206 0.0 0.0 0.00 0.00 0.00 92 1013.7
20260505083123 53 194 0.0 0.0 0.00 0.00 0.00 92 1013.6
20260505082140 53 192 0.0 0.0 0.00 0.00 0.00 91 1013.7
20260505081142 53 202 0.0 0.0 0.00 0.00 0.00 91 1013.6
20260505080139 53 202 0.0 0.0 0.00 0.00 0.00 91 1013.5
20260505075132 54 215 0.0 0.0 0.00 0.00 0.00 91 1013.3
20260505074128 54 209 0.0 0.0 0.00 0.00 0.00 91 1013.1
20260505073131 54 205 0.0 0.9 0.00 0.00 0.00 91 1013.0
20260505072122 54 216 0.0 3.5 0.00 0.00 0.00 91 1013.0
20260505071127 54 215 0.0 0.0 0.00 0.00 0.00 91 1013.0
20260505070142 54 222 0.0 0.0 0.00 0.00 0.00 91 1013.0
20260505065125 54 205 0.0 0.0 0.00 0.00 0.00 90 1012.8
20260505064126 54 206 0.0 5.2 0.00 0.00 0.00 90 1012.8
20260505063130 54 222 0.0 0.0 0.00 0.00 0.00 90 1012.7
20260505062129 54 266 0.0 0.0 0.00 0.00 0.00 90 1012.5
20260505061125 54 209 0.0 7.0 0.00 0.00 0.00 89 1012.3
20260505060147 55 233 0.9 7.0 0.00 0.00 0.00 89 1012.2
20260505055134 55 217 0.0 0.0 0.00 0.00 0.00 89 1012.1
20260505054134 55 224 0.0 6.1 0.00 0.00 0.00 88 1012.1
20260505053135 55 211 0.0 0.0 0.00 0.00 0.00 88 1012.2
20260505052136 55 238 0.9 7.8 0.00 0.00 0.00 88 1012.2
20260505051136 56 204 0.0 0.0 0.00 0.00 0.00 87 1012.0
20260505050137 56 207 0.0 6.1 0.00 0.00 0.00 86 1011.9
20260505041128 58 238 0.0 0.0 0.00 0.00 0.00 82 1011.3
20260505040149 59 232 0.0 0.0 0.00 0.00 0.00 81 1011.2
20260505035141 59 244 0.0 0.0 0.00 0.00 0.00 80 1011.2
20260505034122 60 252 0.0 4.3 0.00 0.00 0.00 78 1011.0
20260505033124 61 254 0.0 6.1 0.00 0.00 0.00 77 1010.9
20260505032141 62 235 0.0 5.2 0.00 0.00 0.00 76 1010.7
20260505031122 62 209 0.9 9.6 0.00 0.00 0.00 74 1010.6
20260505030141 63 235 2.6 9.6 0.00 0.00 0.00 73 1010.5
20260505025134 64 232 3.5 7.0 0.00 0.00 0.00 71 1010.4
20260505024134 65 253 2.6 7.8 0.00 0.00 0.00 70 1010.3
20260505023138 66 251 0.9 10.4 0.00 0.00 0.00 68 1010.3
20260505022122 67 256 1.7 7.0 0.00 0.00 0.00 67 1010.3
20260505021140 67 247 3.5 7.8 0.00 0.00 0.00 66 1010.2
20260505020136 68 192 0.0 7.0 0.00 0.00 0.00 65 1010.1
20260505015132 69 282 0.9 6.1 0.00 0.00 0.00 65 1010.2
20260505014136 69 268 0.9 8.7 0.00 0.00 0.00 64 1010.2
20260505013138 70 244 0.0 8.7 0.00 0.00 0.00 62 1010.2
20260505012136 71 290 1.7 7.8 0.00 0.00 0.00 61 1010.3
20260505011136 72 271 1.7 7.8 0.00 0.00 0.00 61 1010.2
20260505010137 73 277 1.7 7.8 0.00 0.00 0.00 59 1010.2
20260505005128 74 246 1.7 11.3 0.00 0.00 0.00 59 1010.2
20260505004131 75 288 1.7 8.7 0.00 0.00 0.00 57 1010.2
20260505003127 75 282 0.9 7.8 0.00 0.00 0.00 58 1010.2
20260505002129 75 277 3.5 8.7 0.00 0.00 0.00 57 1010.0
20260505001130 75 308 4.3 9.6 0.00 0.00 0.00 57 1010.1
20260505000151 75 306 2.6 8.7 0.00 0.00 0.00 58 1010.0
20260504235139 76 261 0.9 7.0 0.00 0.00 0.00 57 1010.0
20260504234139 76 205 0.0 7.0 0.00 0.00 0.00 57 1010.1
20260504233140 76 296 0.0 7.0 0.00 0.00 0.00 58 1010.0
20260504232139 76 291 1.7 7.0 0.00 0.00 0.00 57 1010.2
20260504231140 76 281 2.6 10.4 0.00 0.00 0.00 57 1010.3
20260504230139 76 242 0.9 8.7 0.00 0.00 0.00 58 1010.5
20260504225132 75 271 1.7 8.7 0.00 0.00 0.00 59 1010.6
20260504224131 75 282 4.3 7.8 0.00 0.00 0.00 59 1010.6
20260504223130 75 245 0.9 9.6 0.00 0.00 0.00 60 1010.7
20260504222133 75 265 0.9 6.1 0.00 0.00 0.00 60 1010.8
20260504221132 74 308 1.7 7.8 0.00 0.00 0.00 61 1010.8
20260504220152 74 311 4.3 7.8 0.00 0.00 0.00 60 1010.9
20260504215129 75 231 0.9 6.1 0.00 0.00 0.00 61 1011.0
20260504214126 75 215 0.9 6.1 0.00 0.00 0.00 59 1011.1
20260504213124 75 223 0.0 3.5 0.00 0.00 0.00 62 1011.1
20260504212125 74 213 0.9 8.7 0.00 0.00 0.00 60 1011.3
20260504211124 74 307 1.7 7.0 0.00 0.00 0.00 61 1011.2
20260504210136 74 281 0.9 6.1 0.00 0.00 0.00 62 1011.2
20260504205131 73 196 4.3 7.8 0.00 0.00 0.00 58 1011.3
20260504204133 73 226 0.9 7.8 0.00 0.00 0.00 59 1011.4
20260504203130 74 236 1.7 5.2 0.00 0.00 0.00 59 1011.3
20260504202128 73 236 0.0 3.5 0.00 0.00 0.00 60 1011.4
20260504201126 72 209 1.7 6.1 0.00 0.00 0.00 59 1011.5
20260504200149 72 286 0.9 3.5 0.00 0.00 0.00 62 1011.5
20260504195141 72 254 0.9 4.3 0.00 0.00 0.00 61 1011.7
20260504194138 72 227 0.9 7.0 0.00 0.00 0.00 62 1011.7
20260504193138 71 254 0.0 6.1 0.00 0.00 0.00 64 1011.7
20260504192139 71 288 0.9 6.1 0.00 0.00 0.00 66 1011.7
20260504191140 70 252 0.0 6.1 0.00 0.00 0.00 66 1011.8
20260504190134 69 219 0.9 7.0 0.00 0.00 0.00 66 1011.9
20260504185128 69 212 1.7 7.0 0.00 0.00 0.00 66 1012.0
20260504184129 68 173 0.0 7.8 0.00 0.00 0.00 68 1012.0
20260504183130 68 252 0.9 7.0 0.00 0.00 0.00 68 1012.1
20260504182131 68 203 3.5 6.1 0.00 0.00 0.00 67 1012.1
20260504181131 68 246 0.0 4.3 0.00 0.00 0.00 68 1012.1
20260504180153 67 304 0.0 5.2 0.00 0.00 0.00 69 1012.1
20260504175125 66 221 1.7 7.0 0.00 0.00 0.00 70 1012.0
20260504174124 65 219 0.9 7.0 0.00 0.00 0.00 71 1012.1
20260504173122 65 241 0.0 5.2 0.00 0.00 0.00 71 1012.1
20260504172123 64 204 1.7 7.0 0.00 0.00 0.00 70 1012.0
20260504171127 64 230 0.9 5.2 0.00 0.00 0.00 72 1012.0
20260504170145 63 211 0.9 6.1 0.00 0.00 0.00 73 1012.0
20260504160134 62 207 0.0 0.0 0.00 0.00 0.00 72 1011.7
20260504151134 60 234 0.0 0.0 0.00 0.00 0.00 76 1011.2
20260504150136 60 229 0.0 0.0 0.00 0.00 0.00 76 1011.2
20260504141133 53 44 0.0 0.0 0.00 0.00 0.00 90 1010.9
20260504140140 52 44 0.0 0.0 0.00 0.00 0.00 91 1010.8
20260504130146 50 45 0.0 0.0 0.00 0.00 0.00 89 1010.1
20260504120146 50 44 0.0 0.0 0.00 0.00 0.00 88 1009.9
20260504110146 52 44 0.0 0.0 0.00 0.00 0.00 85 1009.9